FW1241 Weather Reports


Display with metric or nautical units.
time (UTC)temp
F
wind
direction
speed
MPH
gust
MPH
rain 1hr
in
rain 24hr
in
rain mn
in
humidity
%
barometer
mb
20260506184106 74 279 0.0 1.0 0.00 0.00 0.00 47 1019.0
20260506183105 74 183 1.0 3.0 0.00 0.00 0.00 49 1019.1
20260506182104 73 287 0.0 1.0 0.00 0.00 0.00 50 1019.2
20260506181105 73 311 0.0 2.0 0.00 0.00 0.00 53 1019.2
20260506180104 73 281 0.0 3.0 0.00 0.00 0.00 51 1019.3
20260506174105 72 159 0.0 2.0 0.00 0.00 0.00 55 1019.3
20260506173605 72 34 0.0 2.0 0.00 0.00 0.00 55 1019.4
20260506171105 71 168 1.0 5.0 0.00 0.00 0.00 57 1019.5
20260506170104 69 197 0.0 3.0 0.00 0.00 0.00 58 1019.6
20260506165105 69 190 1.0 3.0 0.00 0.00 0.00 58 1019.8
20260506164104 69 169 1.0 3.0 0.00 0.00 0.00 60 1019.8
20260506163604 69 176 1.0 3.0 0.00 0.00 0.00 60 1019.8
20260506162605 68 191 0.0 2.0 0.00 0.00 0.00 61 1019.8
20260506161104 67 184 0.0 3.0 0.00 0.00 0.00 62 1019.9
20260506160105 67 197 0.0 2.0 0.00 0.00 0.00 63 1019.9
20260506155605 66 169 0.0 3.0 0.00 0.00 0.00 63 1019.9
20260506155105 66 124 1.0 2.0 0.00 0.00 0.00 65 1019.9
20260506154105 66 129 0.0 3.0 0.00 0.00 0.00 66 1019.9
20260506153605 65 156 1.0 3.0 0.00 0.00 0.00 66 1019.9
20260506153105 65 172 0.0 0.0 0.00 0.00 0.00 67 1019.9
20260506152605 64 194 0.0 1.0 0.00 0.00 0.00 68 1019.9
20260506152105 64 191 0.0 2.0 0.00 0.00 0.00 67 1020.0
20260506151605 64 91 0.0 0.0 0.00 0.00 0.00 70 1019.9
20260506150605 63 125 0.0 1.0 0.00 0.00 0.00 72 1020.0
20260506150105 62 160 0.0 0.0 0.00 0.00 0.00 74 1020.1
20260506145605 61 121 0.0 1.0 0.00 0.00 0.00 75 1020.0
20260506144605 60 120 0.0 0.0 0.00 0.00 0.00 76 1020.0
20260506143105 58 124 0.0 0.0 0.00 0.00 0.00 82 1019.9
20260506142605 57 125 0.0 0.0 0.00 0.00 0.00 83 1019.8
20260506141605 55 128 0.0 0.0 0.00 0.00 0.00 87 1019.8
20260506140604 53 128 0.0 0.0 0.00 0.00 0.00 88 1019.7
20260506140104 53 128 0.0 0.0 0.00 0.00 0.00 88 1019.5
20260506135604 53 128 0.0 0.0 0.00 0.00 0.00 89 1019.5
20260506134605 52 129 0.0 0.0 0.00 0.00 0.00 89 1019.3
20260506133105 51 129 0.0 0.0 0.00 0.00 0.00 91 1019.1
20260506131105 50 129 0.0 0.0 0.00 0.00 0.00 90 1018.9
20260506130105 50 129 0.0 0.0 0.00 0.00 0.00 90 1018.8
20260506124604 51 129 0.0 0.0 0.00 0.00 0.00 90 1018.5
20260506122604 51 129 0.0 0.0 0.00 0.00 0.00 90 1018.6
20260506122104 51 129 0.0 0.0 0.00 0.00 0.00 90 1018.6
20260506121605 51 129 0.0 0.0 0.00 0.00 0.00 90 1018.6
20260506121105 51 129 0.0 0.0 0.00 0.00 0.00 90 1018.5
20260506120605 51 129 0.0 0.0 0.00 0.00 0.00 90 1018.5
20260506120105 51 129 0.0 0.0 0.00 0.00 0.00 90 1018.4
20260506114604 51 129 0.0 0.0 0.00 0.00 0.00 90 1018.4
20260506112105 51 129 0.0 0.0 0.00 0.00 0.00 90 1018.1
20260506111604 51 129 0.0 0.0 0.00 0.00 0.00 90 1018.0
20260506111105 52 129 0.0 0.0 0.00 0.00 0.00 90 1017.9
20260506110605 52 129 0.0 0.0 0.00 0.00 0.00 90 1017.9
20260506110105 52 129 0.0 0.0 0.00 0.00 0.00 90 1017.9
20260506104105 52 129 0.0 0.0 0.00 0.00 0.00 89 1017.6
20260506103105 52 129 0.0 0.0 0.00 0.00 0.00 89 1017.6
20260506102605 52 129 0.0 0.0 0.00 0.00 0.00 89 1017.5
20260506102104 52 129 0.0 0.0 0.00 0.00 0.00 88 1017.6
20260506100605 52 129 0.0 0.0 0.00 0.00 0.00 88 1017.6
20260506100105 53 129 0.0 0.0 0.00 0.00 0.00 88 1017.6
20260506095105 52 129 0.0 0.0 0.00 0.00 0.00 88 1017.6
20260506094605 52 129 0.0 0.0 0.00 0.00 0.00 88 1017.6
20260506094104 53 129 0.0 0.0 0.00 0.00 0.00 88 1017.6
20260506093605 53 129 0.0 0.0 0.00 0.00 0.00 88 1017.7
20260506093105 53 129 0.0 0.0 0.00 0.00 0.00 88 1017.7
20260506092105 53 129 0.0 0.0 0.00 0.00 0.00 88 1017.6
20260506091604 53 130 0.0 0.0 0.00 0.00 0.00 88 1017.6
20260506090105 53 129 0.0 0.0 0.00 0.00 0.00 87 1017.5
20260506084604 53 129 0.0 0.0 0.00 0.00 0.00 86 1017.6
20260506083605 54 129 0.0 0.0 0.00 0.00 0.00 85 1017.6
20260506082604 54 129 0.0 0.0 0.00 0.00 0.00 84 1017.4
20260506081604 55 130 0.0 0.0 0.00 0.00 0.00 82 1017.5
20260506081106 55 129 0.0 0.0 0.00 0.00 0.00 82 1017.5
20260506080604 55 130 0.0 0.0 0.00 0.00 0.00 83 1017.4
20260506071605 55 128 0.0 0.0 0.00 0.00 0.00 83 1017.1
20260506070605 55 128 0.0 0.0 0.00 0.00 0.00 82 1017.0
20260506070105 56 128 0.0 0.0 0.00 0.00 0.00 82 1016.9
20260506062104 57 128 0.0 0.0 0.00 0.00 0.00 79 1016.5
20260506061605 57 129 0.0 0.0 0.00 0.00 0.00 80 1016.5
20260506051105 58 128 0.0 0.0 0.00 0.00 0.00 76 1015.9
20260506050605 58 128 0.0 0.0 0.00 0.00 0.00 77 1015.9
20260506050105 59 128 0.0 0.0 0.00 0.00 0.00 77 1015.8
20260506043605 60 129 0.0 0.0 0.00 0.00 0.00 73 1015.4
20260506042604 60 129 0.0 0.0 0.00 0.00 0.00 72 1015.4
20260506041104 62 128 0.0 0.0 0.00 0.00 0.00 68 1015.2
20260506040604 62 129 0.0 0.0 0.00 0.00 0.00 67 1015.2
20260506035605 63 129 0.0 0.0 0.00 0.00 0.00 66 1015.1
20260506034605 64 129 0.0 0.0 0.00 0.00 0.00 61 1015.0
20260506033105 65 128 0.0 0.0 0.00 0.00 0.00 59 1014.8
20260506032605 65 128 0.0 0.0 0.00 0.00 0.00 57 1014.7
20260506031605 66 128 0.0 0.0 0.00 0.00 0.00 54 1014.5
20260506024605 67 146 0.0 0.0 0.00 0.00 0.00 54 1014.2
20260506024105 67 107 0.0 2.0 0.00 0.00 0.00 54 1014.2
20260506023605 67 105 0.0 1.0 0.00 0.00 0.00 53 1014.1
20260506023105 67 294 0.0 0.0 0.00 0.00 0.00 53 1014.1
20260506022604 67 293 0.0 0.0 0.00 0.00 0.00 53 1014.1
20260506015605 68 294 0.0 2.0 0.00 0.00 0.00 51 1013.8
20260506014105 69 315 0.0 0.0 0.00 0.00 0.00 51 1013.8
20260506012605 71 93 0.0 0.0 0.00 0.00 0.00 48 1013.7
20260506011605 71 311 0.0 3.0 0.00 0.00 0.00 48 1013.6
20260506011105 71 316 0.0 3.0 0.00 0.00 0.00 48 1013.7
20260506010605 71 332 1.0 3.0 0.00 0.00 0.00 47 1013.7
20260506005604 71 300 0.0 3.0 0.00 0.00 0.00 49 1013.6
20260506003605 71 62 1.0 3.0 0.00 0.00 0.00 49 1013.6
20260506003105 71 304 0.0 3.0 0.00 0.00 0.00 49 1013.6
20260506002605 71 285 1.0 2.0 0.00 0.00 0.00 48 1013.6
20260506001605 71 291 1.0 3.0 0.00 0.00 0.00 50 1013.5
20260506001105 71 302 1.0 3.0 0.00 0.00 0.00 50 1013.5
20260505235604 69 336 1.0 5.0 0.00 0.00 0.00 50 1013.6
20260505234105 69 328 1.0 3.0 0.00 0.00 0.00 50 1013.7
20260505233105 69 319 1.0 3.0 0.00 0.00 0.00 49 1013.9
20260505232105 70 308 0.0 3.0 0.00 0.00 0.00 49 1014.0
20260505231605 70 297 1.0 3.0 0.00 0.00 0.00 49 1014.1
20260505231105 70 315 1.0 3.0 0.00 0.00 0.00 48 1014.1
20260505230605 70 292 0.0 1.0 0.00 0.00 0.00 48 1014.1
20260505224604 70 308 0.0 1.0 0.00 0.00 0.00 49 1014.3
20260505224106 69 171 0.0 0.0 0.00 0.00 0.00 49 1014.3
20260505223107 70 302 0.0 3.0 0.00 0.00 0.00 49 1014.3
20260505222604 71 309 1.0 3.0 0.00 0.00 0.00 48 1014.3
20260505222105 71 300 0.0 1.0 0.00 0.00 0.00 47 1014.4
20260505221605 71 127 0.0 1.0 0.00 0.00 0.00 50 1014.4
20260505220605 70 200 0.0 2.0 0.00 0.00 0.00 50 1014.5
20260505220105 69 342 0.0 3.0 0.00 0.00 0.00 50 1014.6
20260505215604 69 323 0.0 3.0 0.00 0.00 0.00 49 1014.8
20260505214605 69 299 1.0 3.0 0.00 0.00 0.00 52 1014.8
20260505213605 68 143 1.0 5.0 0.00 0.00 0.00 54 1014.8
20260505212604 67 198 0.0 1.0 0.00 0.00 0.00 56 1014.9
20260505212105 67 266 0.0 2.0 0.00 0.00 0.00 56 1014.9
20260505211105 67 307 2.0 3.0 0.00 0.00 0.00 56 1014.9
20260505210105 67 312 2.0 5.0 0.00 0.00 0.00 56 1014.9
20260505205605 68 302 1.0 5.0 0.00 0.00 0.00 59 1014.9
20260505205105 68 303 1.0 3.0 0.00 0.00 0.00 56 1014.9
20260505204604 68 285 1.0 3.0 0.00 0.00 0.00 57 1014.9
20260505204105 68 310 1.0 3.0 0.00 0.00 0.00 57 1014.9
20260505202605 69 310 1.0 3.0 0.00 0.00 0.00 55 1014.9
20260505201605 67 299 2.0 5.0 0.00 0.00 0.00 58 1014.9
20260505200604 66 300 2.0 7.0 0.00 0.00 0.00 61 1014.9
20260505200105 66 309 2.0 6.0 0.00 0.00 0.00 61 1015.0
20260505195605 66 301 2.0 5.0 0.00 0.00 0.00 61 1015.0
20260505195105 66 310 2.0 5.0 0.00 0.00 0.00 63 1015.1
20260505194605 66 304 2.0 6.0 0.00 0.00 0.00 64 1015.0
20260505194104 66 305 2.0 5.0 0.00 0.00 0.00 64 1015.1
20260505192604 64 297 2.0 5.0 0.00 0.00 0.00 66 1015.1
20260505192105 64 278 2.0 7.0 0.00 0.00 0.00 65 1015.1
20260505190605 64 279 2.0 3.0 0.00 0.00 0.00 67 1015.1
20260505190104 64 298 1.0 3.0 0.00 0.00 0.00 69 1015.1
20260505185605 63 271 1.0 2.0 0.00 0.00 0.00 68 1015.1
20260505185104 63 288 0.0 2.0 0.00 0.00 0.00 69 1015.1